,,Stat5,,Stat1,,Stat2,,Stat3,,Stat4,,Wind1,,Wind1,
time,status,PA1M_AVG,status,PR1M_SUM,status,RH1M_AVG,status,SR1M_AVG,status,TA1M_AVG,status,W1dAve1m,status,W1sAve1m,
2003-04-15, 00:00:01,VALID,918.981,VALID,0.2,VALID,99.9201,VALID,-0.0169808,VALID,20.3058,VALID,61,VALID,0.824119,
2003-04-15, 00:01:00,VALID,918.975,VALID,0,VALID,99.9316,VALID,-0.0169808,VALID,20.3244,VALID,56,VALID,0.947991,
2003-04-15, 00:02:00,VALID,918.975,VALID,0,VALID,99.929,VALID,-0.0339617,VALID,20.3346,VALID,87,VALID,1.09816,
2003-04-15, 00:03:00,VALID,918.936,VALID,0.2,VALID,99.9329,VALID,-0.0169808,VALID,20.3055,VALID,87,VALID,1.37165,
2003-04-15, 00:04:01,VALID,918.935,VALID,0,VALID,99.9443,VALID,-0.0339617,VALID,20.2958,VALID,113,VALID,1.07137,
2003-04-15, 00:05:00,VALID,918.934,VALID,0,VALID,99.9329,VALID,0,VALID,20.2955,VALID,89,VALID,1.19426,
2003-04-15, 00:06:01,VALID,918.927,VALID,0.2,VALID,99.9392,VALID,0,VALID,20.2896,VALID,74,VALID,0.855785,
2003-04-15, 00:07:00,VALID,918.904,VALID,0,VALID,99.9418,VALID,-0.0339617,VALID,20.263,VALID,94,VALID,1.10558,
2003-04-15, 00:08:00,VALID,918.909,VALID,0,VALID,99.9367,VALID,-0.0339617,VALID,20.2635,VALID,79,VALID,0.641964,
2003-04-15, 00:09:00,VALID,918.883,VALID,0.2,VALID,99.943,VALID,-0.0169808,VALID,20.2933,VALID,132,VALID,0.489104,
2003-04-15, 00:10:00,VALID,918.877,VALID,0,VALID,99.957,VALID,0,VALID,20.2961,VALID,78,VALID,0.765191,
2003-04-15, 00:11:01,VALID,918.873,VALID,0,VALID,99.9532,VALID,-0.0339617,VALID,20.2896,VALID,121,VALID,1.62993,
2003-04-15, 00:12:00,VALID,918.847,VALID,0,VALID,99.9494,VALID,-0.0339617,VALID,20.2543,VALID,149,VALID,1.54012,
2003-04-15, 00:13:01,VALID,918.829,VALID,0.2,VALID,99.9519,VALID,-0.0339617,VALID,20.2476,VALID,119,VALID,0.758868,
2003-04-15, 00:14:00,VALID,918.844,VALID,0,VALID,99.9443,VALID,-0.0169808,VALID,20.2481,VALID,112,VALID,0.602679,
2003-04-15, 00:15:01,VALID,918.804,VALID,0.2,VALID,99.9494,VALID,-0.0679233,VALID,20.2408,VALID,101,VALID,0.383929,
2003-04-15, 00:16:01,VALID,918.798,VALID,0,VALID,99.9532,VALID,0,VALID,20.2508,VALID,91,VALID,0.703125,
2003-04-15, 00:17:00,VALID,918.798,VALID,0,VALID,99.9583,VALID,-0.0169808,VALID,20.2311,VALID,139,VALID,0.72309,
2003-04-15, 00:18:01,VALID,918.781,VALID,0.2,VALID,99.9583,VALID,-0.0339617,VALID,20.2279,VALID,113,VALID,0.623972,
2003-04-15, 00:19:00,VALID,918.749,VALID,0,VALID,99.9583,VALID,-0.0339617,VALID,20.2217,VALID,111,VALID,0.947846,
2003-04-15, 00:20:01,VALID,918.719,VALID,0,VALID,99.9621,VALID,0,VALID,20.202,VALID,113,VALID,0.776816,
2003-04-15, 00:21:01,VALID,918.718,VALID,0,VALID,99.9583,VALID,-0.0339617,VALID,20.212,VALID,99,VALID,0.214732,
2003-04-15, 00:22:00,VALID,918.716,VALID,0.2,VALID,99.9723,VALID,0,VALID,20.2182,VALID,61,VALID,0.0868304,
2003-04-15, 00:23:00,VALID,918.704,VALID,0,VALID,99.9723,VALID,0,VALID,20.2093,VALID,116,VALID,0.653166,
2003-04-15, 00:24:00,VALID,918.736,VALID,0,VALID,99.9799,VALID,0,VALID,20.202,VALID,75,VALID,0.258247,
2003-04-15, 00:25:01,VALID,918.741,VALID,0,VALID,99.971,VALID,0,VALID,20.2117,VALID,68,VALID,0.115748,
2003-04-15, 00:26:00,VALID,918.745,VALID,0.2,VALID,99.9647,VALID,0,VALID,20.2085,VALID,67,VALID,0.0696791,
2003-04-15, 00:27:01,VALID,918.734,VALID,0,VALID,99.9735,VALID,-0.0169808,VALID,20.2117,VALID,29,VALID,0.263091,
2003-04-15, 00:28:01,VALID,918.709,VALID,0,VALID,99.9786,VALID,-0.0169808,VALID,20.1991,VALID,29,VALID,0.189063,
2003-04-15, 00:29:01,VALID,918.739,VALID,0.2,VALID,99.9596,VALID,-0.0339617,VALID,20.1824,VALID,29,VALID,0.0995536,
2003-04-15, 00:30:01,VALID,918.748,VALID,0,VALID,99.9697,VALID,0,VALID,20.1762,VALID,29,VALID,0.128701,
2003-04-15, 00:31:00,VALID,918.727,VALID,0,VALID,99.9697,VALID,-0.0169808,VALID,20.1632,VALID,29,VALID,0.0729167,
2003-04-15, 00:32:01,VALID,918.71,VALID,0.2,VALID,99.971,VALID,-0.0679233,VALID,20.1667,VALID,125,VALID,0.93565,
2003-04-15, 00:33:01,VALID,918.702,VALID,0,VALID,99.9799,VALID,-0.0339617,VALID,20.0862,VALID,149,VALID,0.939823,
2003-04-15, 00:34:01,VALID,918.682,VALID,0,VALID,99.9774,VALID,-0.0509425,VALID,20.0476,VALID,149,VALID,0.877111,
2003-04-15, 00:35:01,VALID,918.675,VALID,0.2,VALID,99.9822,VALID,-0.0679233,VALID,20.0317,VALID,135,VALID,1.13527,
2003-04-15, 00:36:00,VALID,918.665,VALID,0,VALID,99.9786,VALID,-0.0339617,VALID,19.9991,VALID,156,VALID,0.427679,
2003-04-15, 00:37:00,VALID,918.678,VALID,0,VALID,99.9761,VALID,-0.0339617,VALID,19.9949,VALID,156,VALID,0.839433,
2003-04-15, 00:38:01,VALID,918.664,VALID,0,VALID,99.9847,VALID,-0.0679233,VALID,20.0123,VALID,153,VALID,0.522352,
2003-04-15, 00:39:01,VALID,918.658,VALID,0.2,VALID,99.9812,VALID,-0.0679233,VALID,20.0091,VALID,147,VALID,0.741776,
2003-04-15, 00:40:00,VALID,918.654,VALID,0,VALID,99.9837,VALID,-0.0169808,VALID,20.0048,VALID,151,VALID,0.824958,
2003-04-15, 00:41:01,VALID,918.643,VALID,0,VALID,99.9847,VALID,-0.101885,VALID,20.0056,VALID,142,VALID,0.519426,
2003-04-15, 00:42:01,VALID,918.644,VALID,0,VALID,99.9825,VALID,-0.0679233,VALID,19.9989,VALID,141,VALID,0.240848,
2003-04-15, 00:43:01,VALID,918.628,VALID,0.2,VALID,99.9786,VALID,-0.0509425,VALID,19.9989,VALID,141,VALID,0.215402,
2003-04-15, 00:44:01,VALID,918.611,VALID,0,VALID,99.9837,VALID,-0.0339617,VALID,19.9887,VALID,141,VALID,0.310238,
2003-04-15, 00:45:01,VALID,918.607,VALID,0,VALID,99.987,VALID,-0.0339617,VALID,19.9859,VALID,141,VALID,0.383247,
2003-04-15, 00:46:01,VALID,918.585,VALID,0,VALID,99.9896,VALID,-0.101885,VALID,19.9633,VALID,142,VALID,0.354646,
2003-04-15, 00:47:01,VALID,918.567,VALID,0,VALID,99.998,VALID,-0.0679233,VALID,19.9608,VALID,143,VALID,0.235853,
2003-04-15, 00:48:01,VALID,918.566,VALID,0.2,VALID,99.9957,VALID,-0.0509425,VALID,19.9476,VALID,142,VALID,0.226985,
2003-04-15, 00:49:01,VALID,918.56,VALID,0,VALID,99.9911,VALID,-0.0679233,VALID,19.9506,VALID,102,VALID,0.338839,
2003-04-15, 00:50:01,VALID,918.559,VALID,0,VALID,99.9967,VALID,-0.0679233,VALID,19.974,VALID,53,VALID,0.7125,
2003-04-15, 00:51:01,VALID,918.544,VALID,0,VALID,99.9934,VALID,-0.0509425,VALID,19.973,VALID,27,VALID,1.00082,
2003-04-15, 00:52:01,VALID,918.531,VALID,0,VALID,99.9959,VALID,-0.0679233,VALID,19.9929,VALID,23,VALID,0.891493,
2003-04-15, 00:53:01,VALID,918.519,VALID,0,VALID,100,VALID,0,VALID,19.9894,VALID,12,VALID,0.698808,
2003-04-15, 00:54:01,VALID,918.504,VALID,0.2,VALID,99.9977,VALID,0,VALID,20.0021,VALID,11,VALID,0.517525,
2003-04-15, 00:55:01,VALID,918.498,VALID,0,VALID,99.9977,VALID,0,VALID,19.9926,VALID,349,VALID,0.716427,
2003-04-15, 00:56:01,VALID,918.484,VALID,0,VALID,99.999,VALID,0,VALID,19.9668,VALID,342,VALID,0.550446,
2003-04-15, 00:57:01,VALID,918.487,VALID,0,VALID,100,VALID,0,VALID,19.97,VALID,342,VALID,0.402902,
2003-04-15, 00:58:01,VALID,918.484,VALID,0,VALID,100,VALID,0,VALID,19.9665,VALID,310,VALID,0.491571,
2003-04-15, 00:59:01,VALID,918.48,VALID,0,VALID,100,VALID,0.0339617,VALID,19.9827,VALID,302,VALID,0.32921,
2003-04-15, 01:00:01,VALID,918.472,VALID,0,VALID,100,VALID,0.0509425,VALID,19.9658,VALID,302,VALID,0.114104,
2003-04-15, 01:01:00,VALID,918.465,VALID,0,VALID,99.999,VALID,0.0339617,VALID,19.9959,VALID,302,VALID,0,
2003-04-15, 01:02:00,VALID,918.459,VALID,0.2,VALID,99.998,VALID,0.0169808,VALID,19.9956,VALID,302,VALID,0.0217483,
2003-04-15, 01:03:00,VALID,918.45,VALID,0,VALID,100,VALID,0.0169808,VALID,19.9921,VALID,302,VALID,0,
2003-04-15, 01:04:00,VALID,918.425,VALID,0,VALID,100,VALID,0,VALID,20.0091,VALID,302,VALID,0.00111607,
2003-04-15, 01:05:00,VALID,918.403,VALID,0,VALID,100,VALID,0,VALID,20.0379,VALID,345,VALID,0.128906,
2003-04-15, 01:06:00,VALID,918.39,VALID,0,VALID,100,VALID,0.0169808,VALID,20.0479,VALID,63,VALID,0.307292,
2003-04-15, 01:07:00,VALID,918.381,VALID,0,VALID,99.999,VALID,0,VALID,20.0576,VALID,63,VALID,0.319696,
2003-04-15, 01:08:00,VALID,918.356,VALID,0,VALID,100,VALID,0.0679233,VALID,20.0638,VALID,62,VALID,0.298564,
2003-04-15, 01:09:00,VALID,918.327,VALID,0,VALID,99.9969,VALID,0.0169808,VALID,20.0603,VALID,40,VALID,0.308699,
2003-04-15, 01:10:00,VALID,918.311,VALID,0,VALID,99.999,VALID,0.0169808,VALID,20.064,VALID,38,VALID,0.342187,
2003-04-15, 01:11:00,VALID,918.296,VALID,0.2,VALID,100,VALID,0.0339617,VALID,20.0767,VALID,37,VALID,0.317857,
2003-04-15, 01:12:00,VALID,918.286,VALID,0,VALID,100,VALID,0.0509425,VALID,20.0926,VALID,27,VALID,0.413857,
2003-04-15, 01:13:00,VALID,918.273,VALID,0,VALID,100,VALID,0.0509425,VALID,20.1158,VALID,19,VALID,0.532552,
2003-04-15, 01:14:00,VALID,918.278,VALID,0,VALID,99.998,VALID,0.0339617,VALID,20.1123,VALID,12,VALID,0.681743,
2003-04-15, 01:15:00,VALID,918.269,VALID,0,VALID,100,VALID,0.0849042,VALID,20.0862,VALID,347,VALID,0.567145,
2003-04-15, 01:16:00,VALID,918.265,VALID,0,VALID,100,VALID,0.0679233,VALID,20.073,VALID,359,VALID,0.607686,
2003-04-15, 01:17:00,VALID,918.25,VALID,0,VALID,99.999,VALID,0.0339617,VALID,20.0864,VALID,356,VALID,0.522768,
2003-04-15, 01:18:00,VALID,918.234,VALID,0,VALID,100,VALID,0.0509425,VALID,20.0737,VALID,350,VALID,0.470089,
2003-04-15, 01:19:00,VALID,918.229,VALID,0,VALID,99.9967,VALID,0.0339617,VALID,20.0802,VALID,350,VALID,0.0986842,
2003-04-15, 01:20:00,VALID,918.201,VALID,0,VALID,100,VALID,0.0169808,VALID,20.0765,VALID,350,VALID,0,
2003-04-15, 01:21:00,VALID,918.174,VALID,0.2,VALID,99.999,VALID,0.0169808,VALID,20.0964,VALID,350,VALID,0.000616776,
2003-04-15, 01:22:00,VALID,918.144,VALID,0,VALID,100,VALID,0.0169808,VALID,20.0993,VALID,350,VALID,0.00886824,
2003-04-15, 01:23:00,VALID,918.122,VALID,0,VALID,100,VALID,0.0169808,VALID,20.0956,VALID,350,VALID,0,
2003-04-15, 01:24:00,VALID,918.09,VALID,0,VALID,100,VALID,0,VALID,20.1217,VALID,350,VALID,0,
2003-04-15, 01:25:00,VALID,918.072,VALID,0,VALID,100,VALID,-0.0169808,VALID,20.1314,VALID,350,VALID,0,
2003-04-15, 01:26:00,VALID,918.048,VALID,0,VALID,100,VALID,0,VALID,20.1312,VALID,350,VALID,0,
2003-04-15, 01:27:00,VALID,918.032,VALID,0,VALID,100,VALID,0,VALID,20.1279,VALID,350,VALID,0,
2003-04-15, 01:28:00,VALID,918.016,VALID,0,VALID,100,VALID,0,VALID,20.1443,VALID,350,VALID,0,
2003-04-15, 01:29:00,VALID,918.011,VALID,0,VALID,99.998,VALID,0,VALID,20.1573,VALID,350,VALID,0.142525,
2003-04-15, 01:30:00,VALID,917.986,VALID,0,VALID,99.9931,VALID,-0.0169808,VALID,20.1546,VALID,351,VALID,0.162373,
2003-04-15, 01:31:00,VALID,917.965,VALID,0,VALID,100,VALID,0.0169808,VALID,20.1546,VALID,351,VALID,0.0569196,
2003-04-15, 01:32:00,VALID,917.958,VALID,0,VALID,100,VALID,0,VALID,20.1446,VALID,14,VALID,0.260938,
2003-04-15, 01:33:00,VALID,917.942,VALID,0,VALID,99.9977,VALID,-0.0169808,VALID,20.1419,VALID,39,VALID,0.326891,
2003-04-15, 01:34:00,VALID,917.942,VALID,0,VALID,100,VALID,-0.0169808,VALID,20.122,VALID,39,VALID,0.20638,
2003-04-15, 01:35:00,VALID,917.934,VALID,0.2,VALID,100,VALID,0.0169808,VALID,20.109,VALID,39,VALID,0.00657895,
2003-04-15, 01:36:00,VALID,917.939,VALID,0,VALID,99.999,VALID,0,VALID,20.1158,VALID,39,VALID,0.00380068,
2003-04-15, 01:37:00,VALID,917.925,VALID,0,VALID,100,VALID,-0.0169808,VALID,20.119,VALID,39,VALID,0.0743243,
2003-04-15, 01:38:00,VALID,917.918,VALID,0,VALID,100,VALID,-0.0169808,VALID,20.1123,VALID,39,VALID,0.120982,
2003-04-15, 01:39:00,VALID,917.906,VALID,0,VALID,99.998,VALID,-0.0169808,VALID,20.109,VALID,39,VALID,0.178348,
2003-04-15, 01:40:00,VALID,917.885,VALID,0,VALID,100,VALID,-0.0169808,VALID,20.0961,VALID,39,VALID,0.0115132,
2003-04-15, 01:41:00,VALID,917.886,VALID,0,VALID,99.998,VALID,0.0169808,VALID,20.0862,VALID,39,VALID,0.0438368,
2003-04-15, 01:42:00,VALID,917.88,VALID,0,VALID,100,VALID,0,VALID,20.0608,VALID,39,VALID,0.344984,
2003-04-15, 01:43:00,VALID,917.876,VALID,0,VALID,100,VALID,0.0339617,VALID,20.0319,VALID,39,VALID,0.366554,
2003-04-15, 01:44:00,VALID,917.866,VALID,0,VALID,100,VALID,0.0169808,VALID,20.0222,VALID,76,VALID,0.372889,
2003-04-15, 01:45:00,VALID,917.852,VALID,0,VALID,100,VALID,0.0169808,VALID,20.022,VALID,90,VALID,0.532366,
2003-04-15, 01:46:00,VALID,917.836,VALID,0,VALID,100,VALID,0,VALID,19.9994,VALID,91,VALID,0.568527,
2003-04-15, 01:47:00,VALID,917.832,VALID,0,VALID,100,VALID,0,VALID,20.0031,VALID,96,VALID,0.620477,
2003-04-15, 01:48:00,VALID,917.824,VALID,0.2,VALID,100,VALID,0.0169808,VALID,19.9762,VALID,99,VALID,0.544922,
2003-04-15, 01:49:00,VALID,917.805,VALID,0,VALID,100,VALID,0.0169808,VALID,19.9571,VALID,108,VALID,0.651182,
2003-04-15, 01:50:00,VALID,917.79,VALID,0,VALID,100,VALID,0.0169808,VALID,19.9573,VALID,104,VALID,0.514147,
2003-04-15, 01:51:00,VALID,917.78,VALID,0,VALID,100,VALID,0.0169808,VALID,19.9737,VALID,106,VALID,0.406672,
2003-04-15, 01:52:00,VALID,917.759,VALID,0,VALID,100,VALID,0.0339617,VALID,19.9668,VALID,120,VALID,0.408482,
2003-04-15, 01:53:00,VALID,917.74,VALID,0,VALID,100,VALID,0.0509425,VALID,19.9665,VALID,111,VALID,0.208929,
2003-04-15, 01:54:00,VALID,917.729,VALID,0.2,VALID,100,VALID,0.118866,VALID,19.9755,VALID,80,VALID,0.47903,
2003-04-15, 01:55:00,VALID,917.702,VALID,0,VALID,100,VALID,0.101885,VALID,19.962,VALID,89,VALID,0.646701,
2003-04-15, 01:56:00,VALID,917.695,VALID,0,VALID,100,VALID,0.101885,VALID,19.9523,VALID,98,VALID,0.466694,
2003-04-15, 01:57:00,VALID,917.69,VALID,0,VALID,100,VALID,0.101885,VALID,19.9459,VALID,97,VALID,0.245777,
2003-04-15, 01:58:00,VALID,917.671,VALID,0,VALID,100,VALID,0.101885,VALID,19.9364,VALID,87,VALID,0.388725,
2003-04-15, 01:59:00,VALID,917.664,VALID,0,VALID,100,VALID,0.101885,VALID,19.9295,VALID,107,VALID,0.529688,
2003-04-15, 02:00:00,VALID,917.657,VALID,0.2,VALID,100,VALID,0.118866,VALID,19.9297,VALID,125,VALID,0.55067,
2003-04-15, 02:01:00,VALID,917.638,VALID,0,VALID,100,VALID,0.101885,VALID,19.9302,VALID,129,VALID,0.561883,
2003-04-15, 02:02:00,VALID,917.616,VALID,0,VALID,100,VALID,0.0849042,VALID,19.93,VALID,140,VALID,0.788628,
2003-04-15, 02:03:00,VALID,917.591,VALID,0,VALID,100,VALID,0.101885,VALID,19.9499,VALID,149,VALID,1.03331,
2003-04-15, 02:04:00,VALID,917.57,VALID,0,VALID,100,VALID,0.0849042,VALID,19.9404,VALID,146,VALID,1.07496,
2003-04-15, 02:05:00,VALID,917.563,VALID,0,VALID,100,VALID,0.101885,VALID,19.9362,VALID,142,VALID,1.20777,
2003-04-15, 02:06:00,VALID,917.544,VALID,0,VALID,100,VALID,0.101885,VALID,19.923,VALID,145,VALID,1.16138,
2003-04-15, 02:07:00,VALID,917.521,VALID,0.2,VALID,100,VALID,0.101885,VALID,19.9203,VALID,145,VALID,1.37455,
2003-04-15, 02:08:00,VALID,917.513,VALID,0,VALID,100,VALID,0.0679233,VALID,19.9242,VALID,144,VALID,0.873972,
2003-04-15, 02:09:00,VALID,917.492,VALID,0,VALID,100,VALID,0.0169808,VALID,19.9352,VALID,149,VALID,0.868273,
2003-04-15, 02:10:00,VALID,917.487,VALID,0,VALID,100,VALID,0,VALID,19.9384,VALID,131,VALID,0.879112,
2003-04-15, 02:11:00,VALID,917.46,VALID,0,VALID,100,VALID,0,VALID,19.9312,VALID,132,VALID,0.675887,
2003-04-15, 02:12:00,VALID,917.44,VALID,0,VALID,100,VALID,0,VALID,19.9248,VALID,128,VALID,0.6856,
2003-04-15, 02:13:00,VALID,917.448,VALID,0,VALID,100,VALID,-0.0169808,VALID,19.9347,VALID,128,VALID,0.549554,
2003-04-15, 02:14:00,VALID,917.435,VALID,0.2,VALID,100,VALID,0,VALID,19.9419,VALID,144,VALID,0.43192,
2003-04-15, 02:15:00,VALID,917.422,VALID,0,VALID,100,VALID,0,VALID,19.9382,VALID,147,VALID,0.401933,
2003-04-15, 02:16:00,VALID,917.422,VALID,0,VALID,100,VALID,-0.0169808,VALID,19.9387,VALID,141,VALID,0.462674,
2003-04-15, 02:17:00,VALID,917.402,VALID,0,VALID,100,VALID,0,VALID,19.9414,VALID,137,VALID,0.556127,
2003-04-15, 02:18:00,VALID,917.398,VALID,0,VALID,100,VALID,0,VALID,19.9414,VALID,138,VALID,0.383024,
2003-04-15, 02:19:00,VALID,917.375,VALID,0,VALID,100,VALID,0.0339617,VALID,19.9447,VALID,127,VALID,0.363387,
2003-04-15, 02:20:00,VALID,917.355,VALID,0,VALID,100,VALID,0,VALID,19.9315,VALID,112,VALID,0.483705,
2003-04-15, 02:21:00,VALID,917.351,VALID,0,VALID,100,VALID,0.0169808,VALID,19.9476,VALID,130,VALID,0.725446,
2003-04-15, 02:22:00,VALID,917.331,VALID,0,VALID,100,VALID,0.0169808,VALID,19.9414,VALID,131,VALID,0.342105,
2003-04-15, 02:23:00,VALID,917.328,VALID,0,VALID,100,VALID,0,VALID,19.9544,VALID,123,VALID,0.493273,
2003-04-15, 02:24:00,VALID,917.327,VALID,0,VALID,100,VALID,0.0169808,VALID,19.9412,VALID,119,VALID,0.49486,
2003-04-15, 02:25:00,VALID,917.322,VALID,0,VALID,100,VALID,0.0169808,VALID,19.9374,VALID,101,VALID,0.47234,
2003-04-15, 02:26:00,VALID,917.325,VALID,0,VALID,100,VALID,0.0339617,VALID,19.9317,VALID,96,VALID,0.485431,
2003-04-15, 02:27:00,VALID,917.328,VALID,0,VALID,100,VALID,0.0169808,VALID,19.9183,VALID,93,VALID,0.221429,
2003-04-15, 02:28:00,VALID,917.327,VALID,0,VALID,100,VALID,0.0339617,VALID,19.9218,VALID,93,VALID,0.0392857,
2003-04-15, 02:29:00,VALID,917.335,VALID,0,VALID,100,VALID,0.0339617,VALID,19.9188,VALID,93,VALID,0,
2003-04-15, 02:30:00,VALID,917.341,VALID,0,VALID,100,VALID,0.0509425,VALID,19.9019,VALID,93,VALID,0,
2003-04-15, 02:31:00,VALID,917.34,VALID,0,VALID,100,VALID,0.0339617,VALID,19.9218,VALID,93,VALID,0,
2003-04-15, 02:32:00,VALID,917.349,VALID,0,VALID,100,VALID,0.0339617,VALID,19.9511,VALID,93,VALID,0.0546875,
2003-04-15, 02:33:00,VALID,917.35,VALID,0,VALID,100,VALID,0.0679233,VALID,19.9479,VALID,85,VALID,0.152872,
2003-04-15, 02:34:00,VALID,917.34,VALID,0,VALID,100,VALID,0,VALID,19.9447,VALID,85,VALID,0,
2003-04-15, 02:35:00,VALID,917.336,VALID,0,VALID,100,VALID,0,VALID,19.9606,VALID,85,VALID,0.0814732,
2003-04-15, 02:36:00,VALID,917.305,VALID,0,VALID,100,VALID,0.0509425,VALID,19.9571,VALID,60,VALID,0.361225,
2003-04-15, 02:37:00,VALID,917.308,VALID,0,VALID,100,VALID,0.0339617,VALID,19.9447,VALID,49,VALID,0.582031,
2003-04-15, 02:38:00,VALID,917.297,VALID,0,VALID,100,VALID,0.0339617,VALID,19.9156,VALID,46,VALID,0.730674,
2003-04-15, 02:39:00,VALID,917.275,VALID,0,VALID,100,VALID,0.0509425,VALID,19.8964,VALID,42,VALID,0.720017,
2003-04-15, 02:40:00,VALID,917.276,VALID,0,VALID,100,VALID,0,VALID,19.8703,VALID,42,VALID,0.548353,
2003-04-15, 02:41:00,VALID,917.267,VALID,0,VALID,100,VALID,0.0169808,VALID,19.87,VALID,28,VALID,0.533929,
2003-04-15, 02:42:00,VALID,917.243,VALID,0,VALID,100,VALID,0,VALID,19.8606,VALID,23,VALID,0.641518,
2003-04-15, 02:43:00,VALID,917.237,VALID,0,VALID,100,VALID,0,VALID,19.8449,VALID,20,VALID,0.54523,
2003-04-15, 02:44:00,VALID,917.232,VALID,0,VALID,100,VALID,0,VALID,19.8382,VALID,23,VALID,0.398872,
2003-04-15, 02:45:00,VALID,917.208,VALID,0,VALID,100,VALID,0,VALID,19.8218,VALID,24,VALID,0.24486,
2003-04-15, 02:46:00,VALID,917.188,VALID,0,VALID,100,VALID,0,VALID,19.825,VALID,26,VALID,0.27027,
2003-04-15, 02:47:00,VALID,917.163,VALID,0,VALID,100,VALID,0.0169808,VALID,19.8285,VALID,28,VALID,0.176309,
2003-04-15, 02:48:00,VALID,917.142,VALID,0,VALID,100,VALID,0,VALID,19.8118,VALID,71,VALID,0.522991,
2003-04-15, 02:49:00,VALID,917.113,VALID,0,VALID,100,VALID,0.0169808,VALID,19.8215,VALID,98,VALID,0.677232,
2003-04-15, 02:50:00,VALID,917.094,VALID,0,VALID,100,VALID,0.0169808,VALID,19.8118,VALID,121,VALID,0.472656,
2003-04-15, 02:51:00,VALID,917.071,VALID,0,VALID,100,VALID,0,VALID,19.8151,VALID,111,VALID,0.148003,
2003-04-15, 02:52:00,VALID,917.051,VALID,0,VALID,100,VALID,0,VALID,19.8086,VALID,111,VALID,0.112048,
2003-04-15, 02:53:00,VALID,917.044,VALID,0,VALID,100,VALID,0.0679233,VALID,19.8186,VALID,111,VALID,0.000844595,
2003-04-15, 02:54:00,VALID,917.036,VALID,0,VALID,100,VALID,0.0339617,VALID,19.8151,VALID,133,VALID,0.404561,
2003-04-15, 02:55:00,VALID,917.026,VALID,0.2,VALID,100,VALID,0,VALID,19.835,VALID,121,VALID,0.585938,
2003-04-15, 02:56:00,VALID,916.996,VALID,0,VALID,100,VALID,0.0169808,VALID,19.8576,VALID,128,VALID,0.437277,
2003-04-15, 02:57:00,VALID,916.972,VALID,0,VALID,100,VALID,0.0339617,VALID,19.8608,VALID,133,VALID,0.551809,
2003-04-15, 02:58:00,VALID,916.957,VALID,0,VALID,100,VALID,0.0679233,VALID,19.8738,VALID,129,VALID,0.536024,
2003-04-15, 02:59:00,VALID,916.939,VALID,0,VALID,100,VALID,0.0849042,VALID,19.8698,VALID,140,VALID,0.628495,
2003-04-15, 03:00:00,VALID,916.918,VALID,0,VALID,100,VALID,0.0169808,VALID,19.8705,VALID,123,VALID,0.430954,
2003-04-15, 03:01:00,VALID,916.894,VALID,0,VALID,100,VALID,0.0339617,VALID,19.883,VALID,113,VALID,0.647804,
2003-04-15, 03:02:00,VALID,916.886,VALID,0,VALID,100,VALID,0,VALID,19.8768,VALID,148,VALID,0.808705,
2003-04-15, 03:03:00,VALID,916.875,VALID,0,VALID,100,VALID,0.0339617,VALID,19.8802,VALID,129,VALID,0.566964,
2003-04-15, 03:04:00,VALID,916.874,VALID,0,VALID,100,VALID,0.0339617,VALID,19.8967,VALID,148,VALID,0.843544,
2003-04-15, 03:05:00,VALID,916.861,VALID,0,VALID,100,VALID,0.0169808,VALID,19.8832,VALID,157,VALID,0.751736,
2003-04-15, 03:06:00,VALID,916.861,VALID,0,VALID,100,VALID,0.0509425,VALID,19.8832,VALID,151,VALID,0.75514,
2003-04-15, 03:07:00,VALID,916.849,VALID,0,VALID,100,VALID,0.0169808,VALID,19.8835,VALID,146,VALID,0.523226,
2003-04-15, 03:08:00,VALID,916.844,VALID,0,VALID,100,VALID,0.0169808,VALID,19.88,VALID,148,VALID,0.900971,
2003-04-15, 03:09:00,VALID,916.833,VALID,0,VALID,100,VALID,0.0509425,VALID,19.8656,VALID,145,VALID,0.601786,
2003-04-15, 03:10:00,VALID,916.819,VALID,0,VALID,100,VALID,0.0849042,VALID,19.8656,VALID,130,VALID,0.502009,
2003-04-15, 03:11:00,VALID,916.83,VALID,0,VALID,100,VALID,0.0849042,VALID,19.869,VALID,108,VALID,0.274465,
2003-04-15, 03:12:00,VALID,916.827,VALID,0,VALID,100,VALID,0,VALID,19.8728,VALID,104,VALID,0.373264,
2003-04-15, 03:13:00,VALID,916.826,VALID,0,VALID,100,VALID,0.0509425,VALID,19.8526,VALID,114,VALID,0.583882,
2003-04-15, 03:14:00,VALID,916.831,VALID,0,VALID,100,VALID,0.0509425,VALID,19.8499,VALID,116,VALID,0.723606,
2003-04-15, 03:15:00,VALID,916.822,VALID,0,VALID,100,VALID,0.0509425,VALID,19.8494,VALID,115,VALID,0.207981,
2003-04-15, 03:16:00,VALID,916.827,VALID,0,VALID,100,VALID,0,VALID,19.8534,VALID,92,VALID,0.234152,
2003-04-15, 03:17:00,VALID,916.823,VALID,0,VALID,100,VALID,0.0679233,VALID,19.8628,VALID,117,VALID,0.305357,
2003-04-15, 03:18:00,VALID,916.812,VALID,0,VALID,100,VALID,0.0509425,VALID,19.8663,VALID,134,VALID,0.516242,
2003-04-15, 03:19:00,VALID,916.809,VALID,0,VALID,100,VALID,0.0679233,VALID,19.8596,VALID,142,VALID,0.439236,
2003-04-15, 03:20:00,VALID,916.801,VALID,0,VALID,100,VALID,0.0509425,VALID,19.8566,VALID,140,VALID,0.260074,
2003-04-15, 03:21:00,VALID,916.788,VALID,0,VALID,100,VALID,0.0849042,VALID,19.8593,VALID,135,VALID,0.516681,
2003-04-15, 03:22:00,VALID,916.768,VALID,0,VALID,100,VALID,0.101885,VALID,19.8598,VALID,155,VALID,0.392103,
2003-04-15, 03:23:00,VALID,916.769,VALID,0,VALID,100,VALID,0.0509425,VALID,19.8504,VALID,141,VALID,0.52433,
2003-04-15, 03:24:00,VALID,916.758,VALID,0,VALID,100,VALID,-0.0169808,VALID,19.8417,VALID,154,VALID,0.614062,
2003-04-15, 03:25:00,VALID,916.746,VALID,0,VALID,100,VALID,-0.0339617,VALID,19.835,VALID,164,VALID,0.498561,
2003-04-15, 03:26:00,VALID,916.746,VALID,0,VALID,100,VALID,0,VALID,19.8385,VALID,161,VALID,0.199219,
2003-04-15, 03:27:00,VALID,916.753,VALID,0,VALID,100,VALID,0,VALID,19.8452,VALID,180,VALID,0.324424,
2003-04-15, 03:28:00,VALID,916.755,VALID,0,VALID,100,VALID,-0.0169808,VALID,19.8444,VALID,176,VALID,0.293074,
2003-04-15, 03:29:00,VALID,916.747,VALID,0,VALID,100,VALID,-0.0169808,VALID,19.8317,VALID,174,VALID,0.317779,
2003-04-15, 03:30:00,VALID,916.745,VALID,0,VALID,100,VALID,0,VALID,19.8352,VALID,173,VALID,0.0332589,
2003-04-15, 03:31:00,VALID,916.752,VALID,0,VALID,100,VALID,0.0169808,VALID,19.832,VALID,155,VALID,0.199777,
2003-04-15, 03:32:00,VALID,916.751,VALID,0,VALID,100,VALID,-0.0339617,VALID,19.822,VALID,118,VALID,0.459087,
2003-04-15, 03:33:00,VALID,916.746,VALID,0,VALID,100,VALID,0,VALID,19.8228,VALID,111,VALID,0.425998,
2003-04-15, 03:34:00,VALID,916.756,VALID,0,VALID,100,VALID,-0.0169808,VALID,19.8027,VALID,88,VALID,0.44449,
2003-04-15, 03:35:00,VALID,916.751,VALID,0,VALID,100,VALID,-0.0169808,VALID,19.79,VALID,99,VALID,0.492188,
2003-04-15, 03:36:00,VALID,916.749,VALID,0,VALID,100,VALID,0.0339617,VALID,19.7738,VALID,117,VALID,0.58087,
2003-04-15, 03:37:00,VALID,916.738,VALID,0,VALID,100,VALID,0,VALID,19.7803,VALID,112,VALID,0.48817,
2003-04-15, 03:38:00,VALID,916.747,VALID,0,VALID,100,VALID,0.0339617,VALID,19.7902,VALID,137,VALID,0.11875,
2003-04-15, 03:39:00,VALID,916.754,VALID,0,VALID,100,VALID,0.101885,VALID,19.7852,VALID,112,VALID,0.502056,
2003-04-15, 03:40:00,VALID,916.757,VALID,0,VALID,100,VALID,0.101885,VALID,19.792,VALID,75,VALID,0.592014,